Location: Hilton Head Island
(32.2163°N, 80.7526°W)
Time: 02:32:27
(UTC-04:00)

Tiros 1 despin weight - Pass Details

Date: 24 February 2026
Orbit: 556 x 593 km, 48.2° (Epoch: 9 March)

Event Time Altitude Azimuth Distance (km) Brightness Sun altitude
Rises 10:24:48 0° 187° (S) 2,770 ? 38.0°
Reaches altitude 10° 10:27:58 10° 162° (SSE) 1,867 ? 38.4°
Maximum altitude 10:30:17 14° 129° (SE) 1,596 ? 38.8°
Drops below altitude 10° 10:32:37 10° 96° (E) 1,860 ? 39.1°
Sets 10:35:44 0° 72° (ENE) 2,752 ? 39.5°
